Stations météo

réclame
Mon MeteoGroup
Toulouse/Blagnac, France (7630): Température de l'air & dewpoint: 17.04.2018 03:00:00 - 23.04.2018 03:00:00 (CEST)Toulouse/Blagnac, France (7630): Température de l'air 5cm: 17.04.2018 03:00:00 - 23.04.2018 03:00:00 (CEST)Toulouse/Blagnac, France (7630): Température de l'air -20cm & Température de l'air -100cm: 17.04.2018 03:00:00 - 23.04.2018 03:00:00 (CEST)Toulouse/Blagnac, France (7630): Vitesse du vent & gusts: 17.04.2018 03:00:00 - 23.04.2018 03:00:00 (CEST)Toulouse/Blagnac, France (7630): Direction du vent: 17.04.2018 03:00:00 - 23.04.2018 03:00:00 (CEST)Toulouse/Blagnac, France (7630): reduced air pressure: 17.04.2018 03:00:00 - 23.04.2018 03:00:00 (CEST)Toulouse/Blagnac, France (7630): visibility: 17.04.2018 03:00:00 - 23.04.2018 03:00:00 (CEST)Toulouse/Blagnac, France (7630): Ensoleillement: 17.04.2018 03:00:00 - 23.04.2018 03:00:00 (CEST)Toulouse/Blagnac, France (7630): Quantités de précipitations: 17.04.2018 03:00:00 - 23.04.2018 03:00:00 (CEST)
Date & Time tt [°C] td [°C] tt 5cm [°C] tt -20cm [°C] tt -100cm [°C] ff [km/h] ff [knt] fx [km/h] fx [knt] dd ppp [hPa] vv [km] sd [min] rr [mm]
23.04.2018 03:00:00 15,0 9,8 10,1 17,2 13,3 4 2 6 3 S 1018,0 27 0 0,0
23.04.2018 02:00:00 15,1 9,9 11,8 17,3 13,2 5 3 11 6 SE 1018,3 27 0 0,0
23.04.2018 01:00:00 16,8 10,2 15,0 17,4 13,2 8 5 22 12 SW 1018,7 31 0 0,0
23.04.2018 00:00:00 17,0 10,6 14,3 17,6 13,2 14 7 19 11 SSE 1017,6 29 0 0,0
22.04.2018 23:00:00 17,8 10,2 14,2 17,7 13,2 8 4 14 8 S 1017,1 30 0 0,0
22.04.2018 22:00:00 19,3 10,3 17,4 17,8 13,3 17 9 33 18 SSE 1016,5 31 0 0,0
22.04.2018 21:00:00 20,8 10,3 18,6 17,7 13,2 17 9 27 15 SSE 1015,4 39 0 0,0
22.04.2018 20:00:00 22,3 9,8 21,1 17,6 13,2 15 8 21 11 SE 1014,6 51 35 0,0
22.04.2018 19:00:00 24,0 11,7 25,7 17,4 13,2 10 6 18 10 S 1014,5 45 40 0,0
22.04.2018 18:00:00 24,2 10,8 26,5 17,2 13,2 8 4 21 11 SSE 1014,1 49 28 0,0
22.04.2018 17:00:00 25,3 12,2 29,6 16,8 13,2 14 7 22 12 ESE 1014,1 38 57 0,0
22.04.2018 16:00:00 24,7 11,6 30,7 16,4 13,2 9 5 17 9 E 1014,7 20 57 0,0
22.04.2018 15:00:00 24,5 13,7 29,9 16,0 13,2 5 3 16 9 ESE 1015,6 21 60 0,0
22.04.2018 14:00:00 22,8 12,4 27,5 15,8 13,1 8 4 22 12 SE 1016,1 19 44 0,0
22.04.2018 13:00:00 21,3 11,9 25,1 15,6 13,1 13 7 29 15 SE 1016,5 20 36 0,0
22.04.2018 12:00:00 19,9 10,9 22,2 15,5 13,1 17 9 25 13 ESE 1016,9 42 53 0,0
22.04.2018 11:00:00 18,0 10,6 17,9 15,5 13,1 13 7 20 11 ESE 1017,3 35 18 0,0
22.04.2018 10:00:00 16,2 9,8 16,5 15,5 13,1 10 5 16 9 ESE 1017,2 32 0 0,0
22.04.2018 09:00:00 15,1 10,1 13,5 15,7 13,1 9 5 13 7 SE 1017,1 30 0 0,0
22.04.2018 08:00:00 14,5 8,9 9,4 15,8 13,1 5 3 9 5 E 1016,7 34 6 0,0
22.04.2018 07:00:00 13,4 8,7 8,9 15,9 13,1 2 1 3 2 S 1016,4 33 0 0,0
22.04.2018 06:00:00 13,6 8,4 8,6 16,1 13,0 0 0 6 4 N 1016,0 34 0 0,0
22.04.2018 05:00:00 14,1 8,3 8,3 16,2 13,0 3 1 6 3 SSE 1016,0 34 0 0,0
22.04.2018 04:00:00 14,8 7,8 9,9 16,4 13,0 3 2 12 6 S 1015,9 41 0 0,0
22.04.2018 03:00:00 16,5 6,9 13,7 16,5 13,0 10 5 15 8 ESE 1015,9 42 0 0,0
22.04.2018 02:00:00 16,2 6,9 13,8 16,7 13,0 10 6 21 11 SE 1016,3 46 0 0,0
22.04.2018 01:00:00 17,4 6,6 14,2 16,8 13,0 16 9 25 13 SE 1016,4 46 0 0,0
22.04.2018 00:00:00 17,2 7,0 14,3 17,0 13,0 11 6 25 14 SE 1016,5 46 0 0,0
21.04.2018 23:00:00 18,4 6,6 15,7 17,1 13,0 13 7 24 13 SE 1016,6 46 0 0,0
21.04.2018 22:00:00 19,8 6,5 16,5 17,2 13,0 16 9 30 16 SE 1016,5 48 0 0,0
21.04.2018 21:00:00 21,6 6,7 17,5 17,2 13,0 19 10 32 18 SE 1016,0 51 0 0,0
21.04.2018 20:00:00 22,6 7,6 21,3 17,1 13,0 21 11 34 18 SE 1015,7 36 52 0,0
21.04.2018 19:00:00 24,3 8,3 28,1 16,9 12,9 18 10 30 16 SSE 1015,5 32 60 0,0
21.04.2018 18:00:00 25,5 8,0 30,6 16,7 13,0 21 11 36 19 SSE 1015,6 30 60 0,0
21.04.2018 17:00:00 25,9 9,7 31,8 16,3 13,0 18 10 35 19 SE 1015,7 29 60 0,0
21.04.2018 16:00:00 26,0 8,9 31,0 15,9 12,9 18 10 31 17 ESE 1016,2 30 60 0,0
21.04.2018 15:00:00 25,3 9,2 30,4 15,5 12,9 21 12 35 19 ESE 1017,0 28 60 0,0
21.04.2018 14:00:00 24,5 10,7 29,8 15,2 12,9 23 12 33 18 SE 1017,4 31 60 0,0
21.04.2018 13:00:00 23,4 11,1 29,1 15,0 12,9 19 10 27 15 ESE 1018,3 30 60 0,0
21.04.2018 12:00:00 22,1 10,9 25,8 14,8 12,9 17 9 31 17 SSE 1018,9 24 60 0,0
21.04.2018 11:00:00 20,5 9,4 23,4 14,8 12,9 20 11 38 20 ESE 1019,1 22 60 0,0
21.04.2018 10:00:00 17,9 8,7 20,7 14,8 12,9 16 9 28 15 ESE 1019,5 28 60 0,0
21.04.2018 09:00:00 15,3 7,8 14,6 15,0 12,9 13 7 20 11 SE 1019,8 31 60 0,0
21.04.2018 08:00:00 13,6 7,4 6,5 15,1 12,9 8 4 11 6 E 1019,8 27 36 0,0
21.04.2018 07:00:00 12,1 7,4 6,6 15,3 12,9 5 3 11 6 S 1019,4 25 0 0,0
21.04.2018 06:00:00 11,6 7,5 7,5 15,4 12,8 7 4 8 5 S 1019,5 29 0 0,0
21.04.2018 05:00:00 12,2 7,7 7,8 15,6 12,8 7 4 13 7 SSE 1019,7 27 0 0,0
21.04.2018 04:00:00 13,4 7,8 6,9 15,8 12,9 4 2 14 8 SW 1019,8 33 0 0,0
21.04.2018 03:00:00 14,6 8,1 7,5 15,9 12,8 0 0 12 6 N 1019,9 33 0 0,0
21.04.2018 02:00:00 16,7 8,4 10,9 16,0 12,8 7 4 10 5 E 1020,1 34 0 0,0
21.04.2018 01:00:00 17,8 8,6 8,7 16,2 12,8 5 3 9 5 E 1020,2 34 0 0,0
21.04.2018 00:00:00 17,6 8,4 9,0 16,3 12,8 3 1 9 5 NNE 1020,3 36 0 0,0
20.04.2018 23:00:00 19,3 8,6 16,2 16,4 12,8 8 4 21 11 ESE 1020,2 38 0 0,0
20.04.2018 22:00:00 20,5 8,5 18,4 16,5 12,8 16 9 39 21 ESE 1020,1 40 0 0,0
20.04.2018 21:00:00 21,5 8,4 19,0 16,4 12,8 20 11 33 18 ESE 1019,5 47 21 0,0
20.04.2018 20:00:00 22,3 8,8 21,4 16,4 12,8 21 12 34 18 SE 1019,0 31 60 0,0
20.04.2018 19:00:00 24,4 7,9 26,7 16,2 12,7 23 12 41 22 ESE 1019,0 27 60 0,0
20.04.2018 18:00:00 25,0 8,5 28,7 16,0 12,7 26 14 39 21 ESE 1019,1 23 60 0,0
20.04.2018 17:00:00 25,2 8,6 29,3 15,7 12,8 27 14 53 29 ESE 1019,4 21 60 0,0
20.04.2018 16:00:00 25,0 8,0 29,3 15,3 12,7 28 15 47 25 SE 1020,3 14 60 0,0
20.04.2018 15:00:00 24,7 7,3 29,0 15,0 12,7 24 13 43 23 ESE 1020,8 20 60 0,0
20.04.2018 14:00:00 24,1 8,5 27,5 14,7 12,7 29 16 46 25 ESE 1021,0 13 60 0,0
20.04.2018 13:00:00 23,1 7,6 26,5 14,5 12,7 30 16 48 26 ESE 1021,9 14 60 0,0
20.04.2018 12:00:00 21,5 7,7 23,7 14,5 12,7 35 19 54 29 ESE 1022,4 17 60 0,0
20.04.2018 11:00:00 20,1 7,8 19,7 14,5 12,7 34 19 55 30 SE 1022,3 22 52 0,0
20.04.2018 10:00:00 18,3 7,1 20,0 14,5 12,7 24 13 36 19 SE 1022,3 27 60 0,0
20.04.2018 09:00:00 15,9 6,9 12,1 14,6 12,7 18 10 29 16 SE 1022,5 28 43 0,0
20.04.2018 08:00:00 13,0 6,1 8,4 14,8 12,7 7 4 12 6 S 1022,4 44 7 0,0
20.04.2018 07:00:00 14,0 5,1 11,0 14,9 12,7 9 5 22 12 ESE 1022,0 46 0 0,0
20.04.2018 06:00:00 15,3 4,6 12,4 15,0 12,6 9 5 23 13 E 1021,5 55 0 0,0
20.04.2018 05:00:00 15,3 4,9 10,9 15,2 12,7 9 5 22 12 E 1021,7 49 0 0,0
20.04.2018 04:00:00 15,4 5,9 13,5 15,3 12,6 13 7 29 16 ESE 1021,8 51 0 0,0
20.04.2018 03:00:00 15,7 5,6 12,3 15,4 12,6 20 11 31 17 ESE 1021,9 51 0 0,0
20.04.2018 02:00:00 15,9 4,3 11,7 15,6 12,6 9 5 20 11 ESE 1022,4 55 0 0,0
20.04.2018 01:00:00 18,0 3,1 15,3 15,7 12,6 14 7 28 15 E 1022,4 60 0 0,0
20.04.2018 00:00:00 18,1 4,3 14,6 15,9 12,6 10 5 29 16 E 1022,4 59 0 0,0
19.04.2018 23:00:00 18,8 4,5 15,6 16,0 12,6 9 5 29 16 E 1022,5 56 0 0,0
19.04.2018 22:00:00 19,9 4,8 17,7 16,0 12,6 19 10 32 18 E 1022,3 59 0 0,0
19.04.2018 21:00:00 21,0 5,3 18,7 16,0 12,6 18 10 36 19 ESE 1021,8 59 20 0,0
19.04.2018 20:00:00 22,3 5,7 21,3 16,0 12,6 23 12 49 27 ESE 1021,6 31 60 0,0
19.04.2018 19:00:00 23,5 5,8 25,0 15,9 12,5 34 19 53 29 ESE 1021,7 19 60 0,0
19.04.2018 18:00:00 24,1 5,9 27,0 15,7 12,6 29 16 53 29 E 1021,7 13 60 0,0
19.04.2018 17:00:00 24,3 7,0 27,8 15,4 12,5 32 17 56 30 E 1021,7 12 60 0,0
19.04.2018 16:00:00 24,4 8,4 27,9 15,2 12,5 38 20 58 31 ESE 1022,1 10 60 0,0
19.04.2018 15:00:00 24,5 8,8 27,3 14,9 12,5 35 19 71 38 ESE 1022,5 5 60 0,0
19.04.2018 14:00:00 24,2 10,1 26,6 14,7 12,5 36 19 61 33 ESE 1022,9 11 60 0,0
19.04.2018 13:00:00 22,9 8,2 26,3 14,6 12,5 41 22 67 36 ESE 1023,4 11 60 0,0
19.04.2018 12:00:00 22,6 7,9 25,1 14,4 12,5 32 18 54 29 ESE 1023,6 15 60 0,0
19.04.2018 11:00:00 21,4 8,0 23,2 14,4 12,5 32 18 54 29 ESE 1023,7 19 60 0,0
19.04.2018 10:00:00 19,7 8,1 20,9 14,5 12,5 27 15 41 22 E 1023,9 36 60 0,0
19.04.2018 09:00:00 17,5 7,8 16,3 14,6 12,5 16 8 29 16 ESE 1024,0 38 60 0,0
19.04.2018 08:00:00 15,6 7,1 11,3 14,7 12,5 11 6 21 12 ESE 1023,8 39 33 0,0
19.04.2018 07:00:00 14,1 6,9 11,2 14,8 12,5 10 5 22 12 SE 1023,5 49 0 0,0
19.04.2018 06:00:00 14,6 6,4 11,9 15,0 12,5 11 6 37 20 SE 1023,3 56 0 0,0
19.04.2018 05:00:00 16,6 6,1 14,4 15,1 12,5 21 11 35 19 SE 1023,1 58 0 0,0
19.04.2018 04:00:00 17,5 5,7 14,0 15,2 12,4 18 10 29 16 SE 1023,0 57 0 0,0
19.04.2018 03:00:00 16,4 5,6 13,7 15,4 12,4 16 9 29 16 SE 1023,1 59 0 0,0
19.04.2018 02:00:00 16,3 5,8 10,6 15,5 12,5 13 7 21 12 SE 1023,5 58 0 0,0
19.04.2018 01:00:00 15,3 5,8 9,6 15,7 12,4 6 4 20 11 SSE 1023,6 59 0 0,0
19.04.2018 00:00:00 17,7 6,2 11,7 15,8 12,4 10 6 21 11 ESE 1023,5 60 0 0,0
18.04.2018 23:00:00 17,5 6,4 12,3 15,9 12,4 9 5 18 10 SE 1023,4 60 0 0,0
18.04.2018 22:00:00 19,3 6,4 16,2 16,0 12,4 11 6 25 14 ESE 1023,1 60 0 0,0
18.04.2018 21:00:00 20,9 6,4 18,6 16,0 12,4 16 9 45 24 ESE 1022,6 59 19 0,0
18.04.2018 20:00:00 22,3 7,3 21,6 15,9 12,4 29 15 54 29 ESE 1022,4 24 60 0,0
18.04.2018 19:00:00 23,4 8,7 25,1 15,7 12,4 32 17 57 31 ESE 1022,1 18 60 0,0
18.04.2018 18:00:00 24,7 9,0 27,8 15,5 12,4 33 18 52 28 ESE 1021,7 19 60 0,0
18.04.2018 17:00:00 26,0 9,8 30,2 15,2 12,4 26 14 41 22 ESE 1021,4 22 60 0,0
18.04.2018 16:00:00 25,8 11,9 30,4 14,8 12,4 23 12 36 19 SE 1021,6 25 60 0,0
18.04.2018 15:00:00 25,3 10,3 29,6 14,5 12,4 22 12 35 19 ESE 1022,1 26 60 0,0
18.04.2018 14:00:00 24,8 10,6 28,5 14,2 12,3 19 11 43 23 ESE 1022,5 27 60 0,0
18.04.2018 13:00:00 24,2 9,0 28,5 13,9 12,4 24 13 39 21 ESE 1023,1 20 60 0,0
18.04.2018 12:00:00 22,5 9,6 26,9 13,7 12,3 10 5 23 12 ESE 1023,9 30 60 0,0
18.04.2018 11:00:00 20,3 9,2 24,2 13,7 12,3 4 2 13 7 ESE 1024,0 31 60 0,0
18.04.2018 10:00:00 16,9 8,8 21,6 13,7 12,3 3 1 6 3 E 1024,4 20 60 0,0
18.04.2018 09:00:00 13,3 8,6 13,1 13,9 12,4 2 1 4 2 SSE 1024,5 41 60 0,0
18.04.2018 08:00:00 10,1 7,5 4,9 14,0 12,3 2 1 7 4 S 1024,7 37 31 0,0
18.04.2018 07:00:00 9,4 6,8 5,0 14,2 12,3 4 2 6 3 S 1024,3 34 0 0,0
18.04.2018 06:00:00 9,4 6,8 4,9 14,4 12,3 5 3 6 3 S 1024,2 40 0 0,0
18.04.2018 05:00:00 10,1 7,2 6,0 14,5 12,3 4 2 8 4 S 1024,3 45 0 0,0
18.04.2018 04:00:00 10,9 7,4 7,5 14,7 12,3 5 3 12 7 SSE 1024,3 46 0 0,0
18.04.2018 03:00:00 11,8 7,9 8,2 14,8 12,3 5 3 8 5 SSE 1024,5 49 0 0,0
18.04.2018 02:00:00 12,4 8,3 8,5 14,9 12,3 4 2 9 5 S 1024,8 39 0 0,0
18.04.2018 01:00:00 13,0 8,3 9,4 15,1 12,3 7 4 13 7 S 1024,8 36 0 0,0
18.04.2018 00:00:00 14,8 8,3 9,8 15,2 12,3 6 3 11 6 SSW 1024,4 30 0 0,0
17.04.2018 23:00:00 17,9 7,6 11,9 15,3 12,3 4 2 11 6 WNW 1024,2 58 0 0,0
17.04.2018 22:00:00 18,7 7,8 13,3 15,3 12,3 8 4 12 6 WNW 1023,7 56 0 0,0
17.04.2018 21:00:00 19,9 7,6 14,9 15,2 12,3 6 3 15 8 WNW 1022,9 48 18 0,0
17.04.2018 20:00:00 22,6 6,4 22,5 15,1 12,3 6 3 16 9 N 1022,3 16 60 0,0
17.04.2018 19:00:00 23,2 7,7 27,5 14,8 12,3 11 6 18 10 NNW 1022,2 41 60 0,0
17.04.2018 18:00:00 23,8 8,2 30,3 14,5 12,3 8 5 19 10 NNW 1022,0 34 60 0,0
17.04.2018 17:00:00 23,7 8,1 31,1 14,1 12,3 10 5 18 10 NW 1021,9 20 60 0,0
17.04.2018 16:00:00 22,8 6,9 30,2 13,6 12,3 6 3 20 11 N 1022,1 55 60 0,0
17.04.2018 15:00:00 22,2 8,0 29,7 13,2 12,3 7 4 20 11 N 1022,6 30 60 0,0
17.04.2018 14:00:00 20,8 9,4 27,9 12,8 12,3 8 4 16 9 N 1023,2 32 60 0,0
17.04.2018 13:00:00 19,4 9,0 26,9 12,5 12,3 6 3 14 7 NE 1023,7 20 60 0,0
17.04.2018 12:00:00 17,8 9,4 24,4 12,4 12,3 3 1 7 4 W 1024,2 43 60 0,0
17.04.2018 11:00:00 15,2 8,4 21,3 12,3 12,2 3 2 8 4 NW 1024,4 38 60 0,0
17.04.2018 10:00:00 12,6 8,5 15,6 12,4 12,3 2 1 10 5 S 1024,3 20 60 0,0
17.04.2018 09:00:00 9,3 7,6 8,6 12,5 12,3 7 4 12 6 S 1024,3 24 60 0,0
17.04.2018 08:00:00 7,2 6,5 3,6 12,6 12,2 5 3 7 4 S 1023,7 20 30 0,0
17.04.2018 07:00:00 6,8 6,1 2,9 12,7 12,2 4 2 8 4 SSE 1023,1 15 0 0,0
17.04.2018 06:00:00 7,0 6,1 2,9 12,9 12,2 4 2 6 3 SE 1022,6 11 0 0,0
17.04.2018 05:00:00 7,0 5,9 4,4 12,9 12,2 5 3 11 6 S 1022,4 24 0 0,0
17.04.2018 04:00:00 7,6 6,5 5,5 13,1 12,2 6 4 13 7 S 1022,2 32 0 0,0
17.04.2018 03:00:00 7,8 6,4 5,1 13,2 12,2 8 4 10 5 S 1022,2 35 0 0,0

tt = Température de l'air
td = dewpoint
tt 5cm = Température de l'air 5cm
tt -20cm = Température de l'air -20cm
tt -100cm = Température de l'air -100cm
ff = Vitesse du vent
fx = gusts
dd = Direction du vent
ppp = reduced air pressure
vv = visibility
sd = Ensoleillement
rr = Quantités de précipitations

stations d'obs. à proximité